Tracking 25744 objects as of 25-Jun-2022
HD Live streaming from Space Station
objects crossing your sky now

STARLINK-1265

Track STARLINK-1265 now!
10-day predictions
STARLINK-1265 is classified as:


NORAD ID: 45406
Int'l Code: 2020-019AY
Perigee: 553.1 km
Apogee: 555.6 km
Inclination: 53.1 °
Period: 95.6 minutes
Semi major axis: 6925 km
RCS: Unknown
Launch date: March 18, 2020
Source: United States (US)
Launch site: AIR FORCE EASTERN TEST RANGE (AFETR)
aabbcc
Your satellite tracking list
Your tracking list is empty




NASA's NSSDC Master Catalog

Two Line Element Set (TLE):
1 45406U 20019AY  22175.50282487  .00001015  00000-0  87053-4 0  9998
2 45406  53.0557  95.7875 0001830  63.6837 296.4340 15.06402674125755
Source of the keplerian elements: AFSPC